Regional Weather Roundup
Issued by NWS Charleston, SC

Home | Current Version | Previous Version | Text Only | Print | Product List | Glossary On
Versions: 1 2 3 4 5 6 7 8 9 10 11 12 13 14 15 16 17 18 19 20 21 22 23 24 25 26 27 28 29 30 31 32 33 34 35 36 37 38 39 40 41 42 43 44 45 46 47 48 49 50
000
ASUS42 KCHS 030313
RWRCHS

REGIONAL WEATHER ROUNDUP
NATIONAL WEATHER SERVICE CHARLESTON SC
1100 PM EDT MON MAY 02 2016

NOTE: "FAIR" INDICATES FEW OR NO CLOUDS BELOW 12,000 FEET WITH NO
SIGNIFICANT WEATHER AND/OR OBSTRUCTIONS TO VISIBILITY.

NOT ALL STATIONS ARE QUALITY CONTROLLED. USE DATA WITH CAUTION...
ESPECIALLY DEWPOINT OBSERVATIONS.

SCZ027-030-031-034>040-042>050-030400-
...SOUTHEAST SOUTH CAROLINA...

CITY           SKY/WX    TMP DP  RH WIND       PRES   REMARKS
N CHARLESTON   MOCLDY    75  72  90 S6        29.99S
WATERFRONT PRK   N/A     75  73  93 S5        29.98R
MOUNT PLEASANT FAIR      73  73 100 CALM      30.00F
JOHNS ISLAND   MOCLDY    75  73  94 SE5       29.99F
PINOPOLIS        N/A     75  72  88 CALM      29.92R
MONCKS CORNER  LGT RAIN  70  66  88 S3        29.99F
SUMMERVILLE    DRIZZLE   72  72 100 CALM      30.00S
BEAUFORT MCAS  LGT RAIN  74  73  97 S5        29.99S FOG
BEAUFORT ARPT  FAIR      73  72  94 S5        29.99S
HILTON HEAD IS TSTM      73  73 100 S14G20    30.01S
WALTERBORO     LGT RAIN  73  73 100 S7        29.99F
ALLENDALE      MOCLDY    70  68  94 CALM      29.95F

...SOUTHERN MIDLANDS AND PEE DEE...

CITY           SKY/WX    TMP DP  RH WIND       PRES   REMARKS
GEORGETOWN     CLOUDY    72  70  94 CALM      30.01S
KINGSTREE      DRIZZLE   70  66  88 SE3       29.98F
ORANGEBURG     CLOUDY    69  67  93 SE6       29.97S
BARNWELL       FAIR      70  70 100 CALM      29.96F
AIKEN          MOCLDY    66  64  94 E3        30.00S THUNDER
MANNING        FAIR      68  68 100 S3        29.98F FOG
COLUMBIA       LGT RAIN  70  66  87 S5        29.95R
SUMTER         NOT AVBL
FLORENCE       LGT RAIN  71  69  93 S7        29.96F
MYRTLE BEACH   CLOUDY    73  66  78 S7        30.03R
N MYRTLE BEACH CLOUDY    73  70  90 SW8       30.00S

$$

GAZ063-065-086>088-099>101-113>116-118-119-134>141-150-030400-
...SOUTHEAST GEORGIA...

CITY           SKY/WX    TMP DP  RH WIND       PRES   REMARKS
SAVANNAH ARPT  CLOUDY    72  69  90 SE6       29.99F
HUNTER AAF     NOT AVBL
FORT STEWART   CLOUDY    71  69  93 E3        29.96R
STATESBORO     CLOUDY    72  72 100 CALM      29.95F
SYLVANIA       CLOUDY    69  69  99 CALM      29.97F
CLAXTON        FAIR      69  69 100 CALM      29.96F FOG

...CSRA...CENTRAL AND FAR SOUTHEAST GEORGIA...

CITY           SKY/WX    TMP DP  RH WIND       PRES   REMARKS
THOMSON        NOT AVBL
AUGUSTA-BUSH   MOCLDY    69  67  93 CALM      29.95R
AUGUSTA-DANIEL CLOUDY    71  67  87 E5        29.96F
SWAINSBORO     FAIR      70  68  94 S5        29.97S
VIDALIA        MOCLDY    70  68  94 S3        29.97R
EASTMAN        MOCLDY    70  70 100 S3        29.98S
HAZLEHURST     FAIR      73  70  88 CALM      29.97R
ALMA           CLOUDY    72  71  97 CALM      29.97S
WAYCROSS       MOCLDY    74  71  92 SE3       29.97S
JESUP          FAIR      73  72  94 CALM      29.98S
BAXLEY         FAIR      72  72 100 CALM      29.96F
BRUNSWICK      CLOUDY    79  73  83 S5        29.99F
SAINT SIMONS   PTCLDY    76  73  91 S8        29.98F

$$

SCZ027-028-034-036>038-045-046-048>050-GAZ119-141-030400-
...LAKE AND SUPPLEMENTAL COASTAL OBSERVATIONS...

STATION/POSITION TIME  TEMP    WIND        PRES    WAVE   SWELL
                       AIR SEA DIR/SP/G            HT/PER HT/PER/DIR
                 (UTC) (F)     (DEG/KT/KT) (MB)    (FT/S) (FT/S/D)
WINYAH BAY       0145   75     230/  6     1015.0
LAKE MURRAY      0200   71     110/  3/  4 1013.5S
ACE BASIN NERRS  NOT AVBL
FORT PULASKI     0200   76 75              1016.2R
SAPELO ISLAND    0200   76     200/  5     1015.0S

$$

ANZ835-935-AMZ111-154-330-350-352-354-370-450-454-472-030400-
...C-MAN AND BUOY OBSERVATIONS...

STATION/POSITION TIME  TEMP    WIND        PRES    WAVE   SWELL
                       AIR SEA DIR/SP/G            HT/PER HT/PER/DIR
                 (UTC) (F)     (DEG/KT/KT) (MB)    (FT/S) (FT/S/D)
BUOY 41004       0250   76 75  180/ 10/ 14 1015.7R   3/ 8   2/ 8
BUOY 41008       NOT AVBL
FOLLY BEACH CMAN 0300   74     160/  6/  7 1015.8F
CAPERS NEARSHORE 0208   74 74  230/  4/  6 1016.0R
FRIPP NEARSHORE  0208   75 75  200/  6/  8 1015.1R


STATION/POSITION TIME  TEMP    WIND        PRES    WAVE   SWELL
                       AIR SEA DIR/SP/G            HT/PER HT/PER/DIR
                 (UTC) (F)     (DEG/KT/KT) (MB)    (FT/S) (FT/S/D)
5E ST. MARYS GA  0221      74                N/A     3/ 4
FRYING PAN BUOY  0200   75 74  180/ 10/ 12 1016.1R
BUOY 41025       0250   75 74  220/ 16/ 17 1015.5R   4/11   2/ 80/11
CAPE LOOKOUT NC  0300   71     210/ 11/ 14 1015.5F
BUOY 41002       0250   74 74  160/ 16/ 17 1019.4R   4/11   3/ 40/11
BUOY 41010       0220   77 79  150/ 16/ 19 1017.3R
ST AUGUSTINE FL  0300   75 75  180/ 14/ 17 1016.4R


$$



USA.gov is the U.S. government's official web portal to all federal, state and local government web resources and services.